FW9416 Weather Reports


time (UTC)temp
F
wind
direction
speed
knots
gust
knots
rain 1hr
in
rain 24hr
in
rain mn
in
humidity
%
barometer
mb
20260506045015 62 0.0 0.0 0.00 0.08 0.07 49 1011.6
20260506044015 62 188 0.0 1.7 0.00 0.08 0.07 48 1011.4
20260506043015 62 265 1.7 4.3 0.00 0.08 0.07 47 1011.3
20260506042015 63 264 1.7 5.2 0.00 0.08 0.07 45 1011.3
20260506041016 63 239 0.9 2.6 0.00 0.08 0.07 43 1011.1
20260506040015 63 0.0 0.0 0.00 0.08 0.07 43 1011.1
20260506035015 63 244 0.0 1.7 0.00 0.08 0.07 42 1011.0
20260506034017 64 250 0.0 2.6 0.00 0.08 0.07 42 1010.8
20260506033015 64 0.0 0.0 0.00 0.08 0.07 40 1010.6
20260506032040 64 0.0 0.0 0.00 0.08 0.07 40 1010.4
20260506031015 65 274 1.7 5.2 0.00 0.08 0.07 39 1010.5
20260506030015 65 277 2.6 4.3 0.00 0.08 0.07 38 1010.4
20260506025040 66 273 2.6 5.2 0.00 0.08 0.07 38 1010.3
20260506024015 66 273 6.1 8.7 0.00 0.08 0.07 37 1010.1
20260506023015 67 261 3.5 7.8 0.00 0.08 0.07 36 1010.0
20260506022015 67 268 3.5 8.7 0.00 0.08 0.07 33 1009.8
20260506021015 67 261 3.5 7.0 0.00 0.08 0.07 31 1009.6
20260506020015 68 258 5.2 10.4 0.00 0.08 0.07 30 1009.4
20260506015015 69 249 5.2 12.2 0.00 0.08 0.07 29 1009.3
20260506014015 69 268 6.1 14.8 0.00 0.08 0.07 29 1009.4
20260506013017 70 244 4.3 10.4 0.00 0.08 0.07 32 1009.3
20260506012015 70 252 5.2 11.3 0.00 0.08 0.07 30 1009.2
20260506011015 71 249 6.1 15.6 0.00 0.08 0.07 29 1009.3
20260506010015 71 257 5.2 12.2 0.00 0.08 0.07 28 1009.2
20260506005017 72 251 5.2 11.3 0.00 0.08 0.07 27 1009.1
20260506004015 72 233 5.2 11.3 0.00 0.08 0.07 26 1009.1
20260506003015 72 248 6.1 13.0 0.00 0.08 0.07 25 1009.0
20260506002015 72 249 7.0 14.8 0.00 0.08 0.07 25 1009.0
20260506001015 73 254 6.1 17.4 0.00 0.08 0.07 24 1009.1
20260506000015 73 240 5.2 12.2 0.00 0.08 0.07 23 1009.0
20260505235116 73 213 6.1 12.2 0.00 0.08 0.07 21 1009.0
20260505234015 74 257 7.0 13.9 0.00 0.08 0.07 19 1008.9
20260505233035 74 244 7.0 18.2 0.00 0.08 0.07 22 1008.9
20260505232015 74 261 7.8 21.7 0.00 0.08 0.07 23 1008.8
20260505231015 74 241 7.0 19.1 0.00 0.08 0.07 27 1008.8
20260505230015 74 243 7.0 13.0 0.00 0.08 0.07 28 1008.9
20260505225015 74 237 7.0 13.9 0.00 0.08 0.07 29 1009.0
20260505224015 75 238 6.1 12.2 0.00 0.08 0.07 28 1009.3
20260505223035 75 255 8.7 17.4 0.00 0.08 0.07 28 1009.3
20260505222036 74 230 5.2 13.9 0.00 0.08 0.07 29 1009.4
20260505221015 74 245 6.1 11.3 0.00 0.08 0.07 30 1009.4
20260505220017 74 223 4.3 11.3 0.00 0.08 0.07 32 1009.4
20260505215015 74 252 7.0 15.6 0.00 0.08 0.07 30 1009.5
20260505214017 75 215 4.3 11.3 0.00 0.08 0.07 30 1009.9
20260505213056 74 210 6.1 16.5 0.00 0.08 0.07 31 1009.7
20260505212015 74 252 7.0 13.0 0.00 0.08 0.07 31 1009.7
20260505211036 74 212 4.3 11.3 0.00 0.08 0.07 32 1009.9
20260505210015 75 238 5.2 13.0 0.00 0.08 0.07 31 1010.0
20260505205057 76 232 6.1 15.6 0.00 0.08 0.07 31 1010.3
20260505204015 75 233 6.1 13.9 0.00 0.08 0.07 30 1010.4
20260505203015 75 227 7.0 15.6 0.00 0.08 0.07 31 1010.5
20260505202015 75 193 5.2 12.2 0.00 0.08 0.07 32 1010.6
20260505201015 74 225 4.3 9.6 0.00 0.08 0.07 34 1010.4
20260505200016 74 195 5.2 13.9 0.00 0.08 0.07 34 1010.5
20260505195035 74 230 6.1 16.5 0.00 0.08 0.07 34 1010.5
20260505194015 73 227 5.2 13.9 0.00 0.08 0.07 36 1010.5
20260505193015 71 254 7.8 16.5 0.00 0.08 0.07 40 1010.3
20260505192037 71 239 4.3 8.7 0.00 0.08 0.07 45 1010.5
20260505191015 70 263 4.3 12.2 0.00 0.08 0.07 49 1010.6
20260505190036 70 280 3.5 7.8 0.00 0.08 0.07 51 1010.9
20260505185015 69 286 3.5 8.7 0.00 0.08 0.07 52 1010.9
20260505184015 69 200 1.7 5.2 0.00 0.08 0.07 52 1011.0
20260505183015 68 244 2.6 7.8 0.00 0.08 0.07 54 1010.9
20260505182015 69 281 4.3 9.6 0.00 0.08 0.07 54 1011.2
20260505181015 68 261 2.6 7.8 0.00 0.08 0.07 55 1011.1
20260505180015 67 268 2.6 5.2 0.00 0.08 0.07 57 1011.1
20260505175056 66 287 2.6 7.0 0.00 0.08 0.07 58 1011.1
20260505174015 67 309 3.5 7.8 0.00 0.08 0.07 58 1011.2
20260505173015 66 319 1.7 6.1 0.00 0.08 0.07 58 1011.2
20260505172017 67 36 1.7 4.3 0.00 0.08 0.07 57 1011.3
20260505171016 66 312 2.6 5.2 0.00 0.08 0.07 59 1011.2
20260505170015 66 309 1.7 4.3 0.00 0.08 0.07 59 1011.1
20260505165015 65 253 0.9 5.2 0.00 0.08 0.07 63 1011.3
20260505164037 64 308 1.7 6.1 0.00 0.08 0.07 64 1011.2
20260505163016 64 282 3.5 7.0 0.00 0.08 0.07 66 1011.1
20260505162015 64 295 2.6 4.3 0.00 0.08 0.07 65 1011.3
20260505161057 65 271 3.5 7.0 0.00 0.08 0.07 64 1011.1
20260505153035 62 278 1.7 3.5 0.00 0.08 0.07 69 1010.7
20260505152035 61 261 0.9 3.5 0.00 0.08 0.07 75 1010.6
20260505151015 60 0.0 0.0 0.00 0.08 0.07 79 1010.4
20260505125036 56 58 0.0 0.9 0.00 0.08 0.07 90 1008.9
20260505124015 56 0.0 0.0 0.00 0.08 0.07 90 1008.9
20260505123015 56 77 0.0 2.6 0.00 0.08 0.07 90 1008.7
20260505122035 56 0.0 0.0 0.00 0.08 0.07 89 1009.1
20260505121016 56 84 0.0 1.7 0.00 0.08 0.07 88 1008.7
20260505120016 56 98 1.7 3.5 0.00 0.08 0.07 89 1008.3
20260505115015 56 107 2.6 7.0 0.00 0.08 0.07 89 1008.5
20260505114015 56 94 1.7 4.3 0.00 0.08 0.07 89 1008.3
20260505113015 56 96 2.6 4.3 0.00 0.08 0.07 89 1008.6
20260505112015 56 120 2.6 4.3 0.00 0.08 0.07 89 1009.0
20260505111016 56 94 2.6 3.5 0.00 0.08 0.07 89 1009.0
20260505102016 57 93 1.7 4.3 0.00 0.08 0.07 90 1009.9
20260505101015 57 82 1.7 4.3 0.00 0.08 0.07 91 1010.0
20260505100016 57 0.0 0.0 0.00 0.08 0.07 91 1010.3
20260505095015 57 94 2.6 6.1 0.00 0.08 0.07 91 1010.1
20260505094016 57 89 2.6 5.2 0.00 0.08 0.07 90 1010.6
20260505093035 57 99 1.7 3.5 0.00 0.08 0.07 90 1011.1
20260505092015 57 105 3.5 6.1 0.00 0.08 0.07 90 1011.2
20260505091015 57 92 2.6 5.2 0.01 0.08 0.07 89 1011.6
20260505090015 57 108 1.7 4.3 0.02 0.08 0.07 88 1012.0
20260505085015 58 113 0.9 2.6 0.04 0.08 0.07 88 1012.1
20260505084015 58 89 0.0 0.9 0.04 0.08 0.07 87 1012.5
20260505083015 58 61 0.0 0.9 0.05 0.08 0.07 86 1012.5
20260505082036 58 0.0 0.0 0.06 0.08 0.07 85 1012.7
20260505081016 58 0.0 0.0 0.05 0.07 0.06 85 1013.0
20260505080015 58 0.0 0.0 0.05 0.06 0.05 84 1013.0
20260505075016 59 0.0 0.0 0.03 0.04 0.03 84 1013.3
20260505074015 59 0.0 0.0 0.03 0.04 0.03 84 1013.2
20260505073015 59 333 0.9 2.6 0.02 0.03 0.02 84 1013.1
20260505072015 59 260 0.0 1.7 0.01 0.02 0.01 84 1013.2
20260505071015 59 0.0 0.0 0.02 0.02 0.01 84 1013.0
20260505070100 59 0.0 0.0 0.01 0.01 0.00 83 1013.0
20260505065015 59 163 0.0 1.7 0.01 0.01 0.01 82 1012.9
20260505064015 60 0.0 0.0 0.01 0.01 0.01 77 1012.7
20260505063017 60 306 0.9 3.5 0.01 0.01 0.01 76 1012.6
20260505062016 61 322 0.9 3.5 0.01 0.01 0.01 73 1012.9
20260505061015 61 323 2.6 5.2 0.00 0.00 0.00 70 1012.8
20260505060015 61 0.0 0.0 0.00 0.00 0.00 67 1013.0
20260505055015 61 314 1.7 3.5 0.00 0.00 0.00 67 1012.7
20260505054016 62 294 0.9 4.3 0.00 0.00 0.00 64 1012.6
20260505053015 62 294 1.7 4.3 0.00 0.00 0.00 60 1012.7
20260505052016 62 290 2.6 5.2 0.00 0.00 0.00 59 1012.9
20260505051035 62 290 2.6 5.2 0.00 0.00 0.00 59 1013.0